Location: Bidwell Hollow
(37.7387°N, 90.1707°W)
Time: 02:37:11
(UTC+00:00)

Tiros 1 despin weight - Pass Details

Date: 21 May 2026
Orbit: 554 x 591 km, 48.2° (Epoch: 6 June)

Event Time Altitude Azimuth Distance (km) Brightness Sun altitude
Rises 07:11:45 0° 203° (SSW) 2,780 - -29.5°
Reaches altitude 10° 07:14:20 10° 189° (S) 1,878 - -29.3°
Maximum altitude 07:17:49 24° 135° (SE) 1,193 - -29.0°
Exits shadow 07:20:23 14° 89° (E) 1,598 ? -28.8°
Drops below altitude 10° 07:21:17 10° 80° (E) 1,867 ? -28.8°
Sets 07:23:50 0° 67° (ENE) 2,760 ? -28.6°
